ARIRANG-5 (KOMPSAT-5)

Last updated on Mon Jun 22 2026 00:02:51 GMT+0000 (Coordinated Universal Time)

1 39227U 13042A 26172.48920211 .00000234 00000+0 21075-4 0 9995 2 39227 97.6201 359.1288 0005354 111.2798 248.9000 15.04495629704506
UTC large
Height (km)
Speed (km/s)
/
Latitude / Longitude
Inclination (degrees)
Orbital Period (minutes)
Azimuth
Elevation
Range (km)
Doppler Factor

Next 0 passes for location: London (51.5072 / 0.1276)

No passes found over London.
ARIRANG-5 (KOMPSAT-5)